Meteo Giornale » Osservazioni meteo Olanda » Deelen

ore: 02:55 - Osservazioni Meteo Deelen
Lat. 52° 4' N Lon. 5° 53' E Alt. 48 metri s.l.m.

coperto Europe/Amsterdam

15 °C

Coperto

Temp. 24 Ore

13 °C

18 °C

Sud

22.2 Km/h

Dew point 12 °C

Umidità 82 %

Visibilità  10 Km

Il sole sorge alle ore 08:08

Il sole tramonta alle ore 18:33

Data e Ora Cielo e Fenomeni T °C DP °C Um. % Pres. hPa Vis. km Vento km/h
Oggi h: 02:55 coperto Coperto 15 12 82 1009 10 S 22.2
Oggi h: 02:25 coperto Coperto 15 12 82 1009 10 S/SO 22.2
Oggi h: 01:55 coperto Coperto 15 12 82 1010 10 S 18.5
Oggi h: 01:25 coperto Coperto 16 13 82 1010 10 S/SO 20.3
Oggi h: 00:55 coperto Coperto 16 13 82 1011 10 S/SO 20.3
Oggi h: 00:25 coperto Coperto 16 14 87 1011 10 S/SO 18.5
Ieri h: 23:55 coperto Coperto 16 14 87 1012 10 S 18.5
Ieri h: 23:25 coperto Coperto 16 14 87 1012 10 S 18.5
Ieri h: 22:55 coperto Coperto 16 14 87 1012 10 S 14.8
Ieri h: 22:25 coperto Coperto 16 15 93 1012 10 S 20.3
Ieri h: 22:20 coperto Coperto 16 15 93 1012 10 S 18.5
Ieri h: 21:55 coperto Coperto 17 15 88 1013 10 S 20.3
Ieri h: 21:25 coperto Coperto 17 15 88 1013 10 S 22.2
Ieri h: 20:55 coperto Coperto 17 15 88 1013 10 S 22.2
Ieri h: 20:25 coperto Coperto 17 16 93 1013 10 S 20.3
Ieri h: 19:55 coperto Coperto 17 16 93 1013 10 S 22.2
Ieri h: 19:25 molto_nuvoloso Molto Nuvoloso 17 16 93 1013 10 S 20.3
Ieri h: 18:55 coperto Coperto 17 16 93 1014 10 S 18.5
Ieri h: 18:25 sereno Sereno 17 16 93 1014 10 S/SO 16.7
Ieri h: 17:59 molto_nuvoloso Molto Nuvoloso 17 16 93 1014 10 S/SO 18.5
Ieri h: 17:25 coperto Coperto 18 17 93 1014 10 S/SO 14.8
Ieri h: 16:55 coperto Coperto 18 17 93 1014 10 S/SO 16.7
Ieri h: 16:25 molto_nuvoloso Molto Nuvoloso 18 17 93 1015 10 N 20.3
Ieri h: 15:55 coperto_pioggia Pioviggine 17 17 100 1015 3 SO 16.7
Ieri h: 15:25 coperto_pioggia Pioviggine Leggera 17 17 100 1015 3 SO 18.5
Ieri h: 14:25 coperto_pioggia Pioviggine Leggera 17 17 100 1015 3 S/SO 20.3
Ieri h: 13:55 foschia Foschia 17 17 100 1015 8 S/SO 24
Ieri h: 13:25 foschia Foschia 17 17 100 1015 6 S/SO 22.2
Ieri h: 12:55 foschia Foschia 16 16 100 1016 3 S/SO 20.3
Ieri h: 12:25 foschia Foschia 16 16 100 1016 4 S/SO 22.2
Ieri h: 11:55 coperto_pioggia Pioggia Debole 16 16 100 1016 2 S/SO 22.2
Ieri h: 11:25 foschia Foschia 15 15 100 1016 3 S/SO 20.3
Ieri h: 10:55 foschia Foschia 15 15 100 1016 2 S 18.5
Ieri h: 10:25 foschia Foschia 15 15 100 1016 2 S 16.7
Ieri h: 09:55 foschia Foschia 14 14 100 1016 2 S 14.8
Ieri h: 09:25 foschia Foschia 14 14 100 1016 3 S 14.8
Ieri h: 08:55 coperto_pioggia Pioviggine 14 14 100 1016 3 S 13
Ieri h: 08:25 foschia Foschia 14 14 100 1016 4 S 16.7
Ieri h: 07:55 coperto_pioggia Pioviggine Leggera 14 14 100 1016 4 S 16.7
Ieri h: 07:25 coperto_pioggia Pioviggine 14 14 100 1016 5 S 16.7
Ieri h: 06:25 foschia Foschia 14 13 93 1016 6 S 14.8
Ieri h: 05:55 foschia Foschia 13 13 100 1016 7 S 16.7
Ieri h: 05:25 coperto Coperto 14 12 87 1017 10 S 14.8
Ieri h: 04:55 coperto Coperto 14 12 87 1017 10 S 14.8
Ieri h: 04:25 coperto Coperto 14 12 87 1017 10 S 13
Ieri h: 03:55 molto_nuvoloso Molto Nuvoloso 14 11 82 1017 10 S 14.8